| time (UTC) | temp C | wind direction | speed KPH | gust KPH | rain 1hr cm | rain 24hr cm | rain mn cm | humidity % | barometer mb |
| 20260509112526 | 21 | 184 | 12.9 | 22.5 | 0.00 | 0.00 | 0.00 | 93 | 1009.1 |
| 20260509112026 | 21 | 170 | 11.3 | 19.3 | 0.00 | 0.00 | 0.00 | 93 | 1009.2 |
| 20260509111546 | 21 | 166 | 8.0 | 17.7 | 0.00 | 0.00 | 0.00 | 93 | 1009.3 |
| 20260509111030 | 21 | 207 | 4.8 | 19.3 | 0.00 | 0.00 | 0.00 | 93 | 1009.5 |
| 20260509110525 | 21 | 234 | 8.0 | 25.7 | 0.00 | 0.00 | 0.00 | 93 | 1009.3 |
| 20260509110041 | 21 | 206 | 11.3 | 25.7 | 0.00 | 0.00 | 0.00 | 93 | 1008.8 |
| 20260509105529 | 21 | 212 | 11.3 | 33.8 | 0.00 | 0.00 | 0.00 | 93 | 1008.2 |
| 20260509105029 | 21 | 209 | 17.7 | 37.0 | 0.00 | 0.00 | 0.00 | 93 | 1008.0 |
| 20260509104545 | 21 | 166 | 17.7 | 37.0 | 0.00 | 0.00 | 0.00 | 93 | 1008.1 |
| 20260509104030 | 21 | 184 | 14.5 | 32.2 | 0.00 | 0.00 | 0.00 | 93 | 1008.2 |
| 20260509103526 | 21 | 195 | 16.1 | 30.6 | 0.00 | 0.00 | 0.00 | 93 | 1008.1 |
| 20260509103047 | 21 | 194 | 16.1 | 33.8 | 0.00 | 0.00 | 0.00 | 93 | 1008.0 |
| 20260509102526 | 21 | 140 | 16.1 | 33.8 | 0.00 | 0.00 | 0.00 | 93 | 1008.1 |
| 20260509102027 | 21 | 169 | 16.1 | 25.7 | 0.00 | 0.00 | 0.00 | 93 | 1007.8 |
| 20260509101550 | 21 | 165 | 11.3 | 20.9 | 0.00 | 0.00 | 0.00 | 92 | 1008.2 |
| 20260509101027 | 21 | 153 | 11.3 | 20.9 | 0.00 | 0.00 | 0.00 | 92 | 1008.2 |
| 20260509100526 | 21 | 153 | 11.3 | 22.5 | 0.00 | 0.00 | 0.00 | 92 | 1008.3 |
| 20260509100055 | 21 | 165 | 8.0 | 22.5 | 0.00 | 0.00 | 0.00 | 92 | 1008.7 |
| 20260509095526 | 21 | 144 | 9.7 | 17.7 | 0.00 | 0.00 | 0.00 | 91 | 1008.6 |
| 20260509095026 | 21 | 184 | 11.3 | 17.7 | 0.00 | 0.00 | 0.00 | 91 | 1008.6 |
| 20260509094551 | 21 | 150 | 9.7 | 16.1 | 0.00 | 0.00 | 0.00 | 91 | 1009.1 |
| 20260509094026 | 21 | 198 | 8.0 | 16.1 | 0.00 | 0.00 | 0.00 | 91 | 1009.6 |
| 20260509093527 | 21 | 171 | 8.0 | 16.1 | 0.00 | 0.00 | 0.00 | 91 | 1009.8 |
| 20260509093045 | 21 | 155 | 6.4 | 16.1 | 0.00 | 0.00 | 0.00 | 91 | 1009.8 |
| 20260509092525 | 21 | 165 | 8.0 | 16.1 | 0.00 | 0.00 | 0.00 | 91 | 1009.9 |
| 20260509092025 | 21 | 181 | 6.4 | 11.3 | 0.00 | 0.00 | 0.00 | 91 | 1009.9 |
| 20260509091545 | 21 | 187 | 6.4 | 11.3 | 0.00 | 0.00 | 0.00 | 91 | 1010.2 |
| 20260509091030 | 21 | 121 | 4.8 | 14.5 | 0.00 | 0.00 | 0.00 | 91 | 1010.2 |
| 20260509090530 | 21 | 192 | 4.8 | 14.5 | 0.00 | 0.00 | 0.00 | 91 | 1010.4 |
| 20260509090048 | 21 | 166 | 4.8 | 14.5 | 0.00 | 0.00 | 0.00 | 90 | 1010.6 |
| 20260509085526 | 21 | 209 | 1.6 | 8.0 | 0.00 | 0.00 | 0.00 | 90 | 1010.6 |
| 20260509085029 | 21 | 211 | 1.6 | 8.0 | 0.00 | 0.00 | 0.00 | 90 | 1010.8 |
| 20260509084550 | 21 | 213 | 4.8 | 8.0 | 0.00 | 0.00 | 0.00 | 90 | 1010.8 |
| 20260509084026 | 21 | 199 | 3.2 | 8.0 | 0.00 | 0.00 | 0.00 | 90 | 1010.7 |
| 20260509083525 | 21 | 209 | 1.6 | 4.8 | 0.00 | 0.00 | 0.00 | 90 | 1010.7 |
| 20260509083046 | 21 | 211 | 1.6 | 4.8 | 0.00 | 0.00 | 0.00 | 90 | 1011.0 |
| 20260509082526 | 21 | 209 | 1.6 | 4.8 | 0.00 | 0.00 | 0.00 | 90 | 1010.9 |
| 20260509082027 | 21 | 210 | 1.6 | 4.8 | 0.00 | 0.00 | 0.00 | 90 | 1010.9 |
| 20260509081548 | 21 | 209 | 3.2 | 4.8 | 0.00 | 0.00 | 0.00 | 90 | 1010.9 |
| 20260509081026 | 21 | 0 | 1.6 | 4.8 | 0.00 | 0.00 | 0.00 | 90 | 1011.0 |
| 20260509080529 | 21 | 206 | 1.6 | 6.4 | 0.00 | 0.00 | 0.00 | 90 | 1010.9 |
| 20260509080046 | 21 | 0 | 0.0 | 8.0 | 0.00 | 0.00 | 0.00 | 90 | 1011.2 |
| 20260509075528 | 21 | 206 | 1.6 | 8.0 | 0.00 | 0.00 | 0.00 | 90 | 1011.2 |
| 20260509075026 | 21 | 205 | 4.8 | 9.7 | 0.00 | 0.00 | 0.00 | 90 | 1011.3 |
| 20260509074545 | 21 | 0 | 3.2 | 9.7 | 0.00 | 0.00 | 0.00 | 90 | 1011.6 |
| 20260509074028 | 21 | 184 | 4.8 | 8.0 | 0.00 | 0.00 | 0.00 | 90 | 1011.4 |
| 20260509073526 | 21 | 0 | 0.0 | 1.6 | 0.00 | 0.00 | 0.00 | 90 | 1011.6 |
| 20260509073046 | 21 | 0 | 0.0 | 3.2 | 0.00 | 0.00 | 0.00 | 90 | 1011.4 |
| 20260509072532 | 21 | 0 | 0.0 | 3.2 | 0.00 | 0.00 | 0.00 | 90 | 1011.4 |
| 20260509072025 | 21 | 0 | 0.0 | 3.2 | 0.00 | 0.00 | 0.00 | 89 | 1011.3 |
| 20260509071544 | 21 | 135 | 0.0 | 3.2 | 0.00 | 0.00 | 0.00 | 89 | 1011.2 |
| 20260509071026 | 21 | 136 | 1.6 | 3.2 | 0.00 | 0.00 | 0.00 | 89 | 1011.2 |
| 20260509070527 | 21 | 134 | 0.0 | 3.2 | 0.00 | 0.00 | 0.00 | 89 | 1011.1 |
| 20260509070045 | 21 | 0 | 0.0 | 3.2 | 0.00 | 0.00 | 0.00 | 89 | 1011.0 |
| 20260509065529 | 21 | 0 | 0.0 | 4.8 | 0.00 | 0.00 | 0.00 | 89 | 1011.1 |
| 20260509065028 | 21 | 134 | 1.6 | 4.8 | 0.00 | 0.00 | 0.00 | 89 | 1011.0 |
| 20260509064615 | 21 | 0 | 0.0 | 4.8 | 0.00 | 0.00 | 0.00 | 89 | 1011.0 |
| 20260509064029 | 21 | 154 | 0.0 | 8.0 | 0.00 | 0.00 | 0.00 | 89 | 1010.8 |
| 20260509063529 | 21 | 154 | 1.6 | 9.7 | 0.00 | 0.00 | 0.00 | 89 | 1010.7 |
| 20260509063044 | 21 | 151 | 3.2 | 9.7 | 0.00 | 0.00 | 0.00 | 89 | 1010.5 |
| 20260509062530 | 21 | 148 | 4.8 | 8.0 | 0.00 | 0.00 | 0.00 | 88 | 1010.4 |
| 20260509062027 | 21 | 136 | 3.2 | 9.7 | 0.00 | 0.00 | 0.00 | 88 | 1010.6 |
| 20260509061549 | 21 | 150 | 1.6 | 9.7 | 0.00 | 0.00 | 0.00 | 88 | 1010.5 |
| 20260509061029 | 21 | 122 | 3.2 | 12.9 | 0.00 | 0.00 | 0.00 | 88 | 1010.4 |
| 20260509060529 | 22 | 124 | 4.8 | 12.9 | 0.00 | 0.00 | 0.00 | 88 | 1010.4 |
| 20260509060043 | 22 | 98 | 4.8 | 12.9 | 0.00 | 0.00 | 0.00 | 88 | 1010.6 |
| 20260509055530 | 22 | 127 | 4.8 | 11.3 | 0.00 | 0.00 | 0.00 | 87 | 1010.9 |
| 20260509055029 | 22 | 113 | 3.2 | 6.4 | 0.00 | 0.00 | 0.00 | 87 | 1011.1 |
| 20260509054601 | 22 | 51 | 1.6 | 4.8 | 0.00 | 0.00 | 0.00 | 87 | 1011.3 |
| 20260509054032 | 22 | 51 | 1.6 | 4.8 | 0.00 | 0.00 | 0.00 | 87 | 1011.3 |
| 20260509053528 | 22 | 50 | 0.0 | 4.8 | 0.00 | 0.00 | 0.00 | 87 | 1011.5 |
| 20260509053044 | 22 | 0 | 0.0 | 4.8 | 0.00 | 0.00 | 0.00 | 87 | 1011.4 |
| 20260509052528 | 22 | 0 | 1.6 | 4.8 | 0.00 | 0.00 | 0.00 | 87 | 1011.5 |
| 20260509052030 | 22 | 57 | 0.0 | 3.2 | 0.00 | 0.00 | 0.00 | 87 | 1011.4 |
| 20260509051544 | 22 | 57 | 0.0 | 3.2 | 0.00 | 0.00 | 0.00 | 87 | 1011.4 |
| 20260509051026 | 22 | 57 | 0.0 | 1.6 | 0.00 | 0.00 | 0.00 | 86 | 1011.3 |
| 20260509050526 | 22 | 0 | 0.0 | 0.0 | 0.00 | 0.00 | 0.00 | 86 | 1011.2 |
| 20260509050055 | 22 | 0 | 0.0 | 0.0 | 0.00 | 0.00 | 0.00 | 86 | 1011.3 |
| 20260509045528 | 22 | 0 | 0.0 | 1.6 | 0.00 | 0.00 | 0.00 | 86 | 1011.1 |
| 20260509045026 | 22 | 0 | 0.0 | 3.2 | 0.00 | 0.00 | 0.00 | 86 | 1011.2 |
| 20260509044546 | 22 | 58 | 0.0 | 3.2 | 0.00 | 0.00 | 0.00 | 86 | 1011.1 |
| 20260509044025 | 22 | 121 | 0.0 | 3.2 | 0.00 | 0.00 | 0.00 | 86 | 1011.1 |
| 20260509043526 | 22 | 121 | 0.0 | 3.2 | 0.00 | 0.00 | 0.00 | 86 | 1011.0 |
| 20260509043046 | 22 | 0 | 0.0 | 3.2 | 0.00 | 0.00 | 0.00 | 86 | 1011.0 |
| 20260509042528 | 22 | 0 | 0.0 | 3.2 | 0.00 | 0.00 | 0.00 | 86 | 1010.9 |
| 20260509042027 | 22 | 121 | 0.0 | 3.2 | 0.00 | 0.00 | 0.00 | 86 | 1010.8 |
| 20260509041547 | 22 | 0 | 0.0 | 1.6 | 0.00 | 0.00 | 0.00 | 85 | 1010.7 |
| 20260509041028 | 22 | 142 | 0.0 | 4.8 | 0.00 | 0.00 | 0.00 | 85 | 1010.7 |
| 20260509040525 | 22 | 0 | 0.0 | 6.4 | 0.00 | 0.00 | 0.00 | 85 | 1010.7 |
| 20260509040054 | 22 | 132 | 3.2 | 6.4 | 0.00 | 0.00 | 0.00 | 85 | 1010.4 |
| 20260509035527 | 22 | 121 | 3.2 | 6.4 | 0.00 | 0.00 | 0.00 | 85 | 1010.2 |
| 20260509035029 | 22 | 129 | 3.2 | 6.4 | 0.00 | 0.00 | 0.00 | 85 | 1010.3 |
| 20260509034548 | 22 | 132 | 1.6 | 3.2 | 0.00 | 0.00 | 0.00 | 85 | 1010.5 |
| 20260509034027 | 22 | 0 | 0.0 | 0.0 | 0.00 | 0.00 | 0.00 | 85 | 1010.6 |
| 20260509033527 | 22 | 0 | 0.0 | 0.0 | 0.00 | 0.00 | 0.00 | 85 | 1010.7 |
| 20260509033040 | 22 | 0 | 0.0 | 0.0 | 0.00 | 0.00 | 0.00 | 85 | 1010.6 |
| 20260509032527 | 22 | 0 | 0.0 | 0.0 | 0.00 | 0.00 | 0.00 | 85 | 1010.6 |
| 20260509032029 | 22 | 0 | 0.0 | 0.0 | 0.00 | 0.00 | 0.00 | 84 | 1010.5 |
| 20260509031558 | 22 | 0 | 0.0 | 0.0 | 0.00 | 0.00 | 0.00 | 84 | 1010.4 |
| 20260509031027 | 22 | 0 | 0.0 | 0.0 | 0.00 | 0.00 | 0.00 | 84 | 1010.4 |
| 20260509030529 | 22 | 0 | 0.0 | 0.0 | 0.00 | 0.00 | 0.00 | 84 | 1010.3 |
| 20260509030045 | 22 | 0 | 0.0 | 3.2 | 0.00 | 0.00 | 0.00 | 84 | 1010.0 |
| 20260509025527 | 22 | 0 | 0.0 | 3.2 | 0.00 | 0.00 | 0.00 | 84 | 1009.9 |
| 20260509025027 | 22 | 132 | 0.0 | 3.2 | 0.00 | 0.00 | 0.00 | 84 | 1009.8 |
| 20260509024541 | 22 | 0 | 0.0 | 0.0 | 0.00 | 0.00 | 0.00 | 84 | 1009.8 |
| 20260509024027 | 22 | 0 | 0.0 | 0.0 | 0.00 | 0.00 | 0.00 | 83 | 1009.6 |
| 20260509023527 | 22 | 0 | 0.0 | 0.0 | 0.00 | 0.00 | 0.00 | 83 | 1009.6 |
| 20260509023053 | 22 | 0 | 0.0 | 0.0 | 0.00 | 0.00 | 0.00 | 83 | 1009.6 |
| 20260509022527 | 22 | 0 | 0.0 | 0.0 | 0.00 | 0.00 | 0.00 | 83 | 1009.6 |
| 20260509022027 | 22 | 0 | 0.0 | 0.0 | 0.00 | 0.00 | 0.00 | 83 | 1009.6 |
| 20260509021539 | 22 | 0 | 0.0 | 0.0 | 0.00 | 0.00 | 0.00 | 83 | 1009.6 |
| 20260509021030 | 22 | 0 | 0.0 | 3.2 | 0.00 | 0.00 | 0.00 | 83 | 1009.5 |
| 20260509020532 | 22 | 0 | 0.0 | 3.2 | 0.00 | 0.00 | 0.00 | 83 | 1009.4 |
| 20260509020046 | 23 | 132 | 0.0 | 3.2 | 0.00 | 0.00 | 0.00 | 83 | 1009.3 |
| 20260509015527 | 22 | 0 | 0.0 | 3.2 | 0.00 | 0.00 | 0.00 | 82 | 1009.3 |
| 20260509015026 | 23 | 132 | 0.0 | 4.8 | 0.00 | 0.00 | 0.00 | 82 | 1009.2 |
| 20260509014547 | 23 | 0 | 0.0 | 4.8 | 0.00 | 0.00 | 0.00 | 82 | 1009.1 |
| 20260509014024 | 23 | 132 | 1.6 | 4.8 | 0.00 | 0.00 | 0.00 | 82 | 1009.0 |
| 20260509013527 | 23 | 0 | 1.6 | 4.8 | 0.00 | 0.00 | 0.00 | 81 | 1009.0 |
| 20260509013106 | 23 | 132 | 1.6 | 6.4 | 0.00 | 0.00 | 0.00 | 81 | 1009.0 |
| 20260509012526 | 23 | 139 | 3.2 | 8.0 | 0.00 | 0.00 | 0.00 | 81 | 1008.9 |
| 20260509012027 | 23 | 147 | 3.2 | 9.7 | 0.00 | 0.00 | 0.00 | 81 | 1008.8 |
| 20260509011540 | 23 | 139 | 3.2 | 11.3 | 0.00 | 0.00 | 0.00 | 81 | 1008.7 |
| 20260509011027 | 23 | 133 | 3.2 | 11.3 | 0.00 | 0.00 | 0.00 | 80 | 1008.6 |
| 20260509010529 | 23 | 161 | 1.6 | 9.7 | 0.00 | 0.00 | 0.00 | 80 | 1008.7 |
| 20260509010038 | 23 | 145 | 3.2 | 11.3 | 0.00 | 0.00 | 0.00 | 79 | 1008.7 |
| 20260509005526 | 23 | 142 | 3.2 | 12.9 | 0.00 | 0.00 | 0.00 | 79 | 1008.6 |
| 20260509005027 | 24 | 123 | 6.4 | 12.9 | 0.00 | 0.00 | 0.00 | 79 | 1008.5 |
| 20260509004544 | 24 | 136 | 4.8 | 12.9 | 0.00 | 0.00 | 0.00 | 78 | 1008.5 |
| 20260509004026 | 24 | 106 | 4.8 | 11.3 | 0.00 | 0.00 | 0.00 | 78 | 1008.7 |
| 20260509003526 | 24 | 135 | 4.8 | 11.3 | 0.00 | 0.00 | 0.00 | 78 | 1008.7 |
| 20260509003046 | 24 | 169 | 4.8 | 11.3 | 0.00 | 0.00 | 0.00 | 78 | 1008.7 |
| 20260509002526 | 24 | 126 | 3.2 | 8.0 | 0.00 | 0.00 | 0.00 | 78 | 1008.7 |
| 20260509002026 | 24 | 145 | 3.2 | 8.0 | 0.00 | 0.00 | 0.00 | 78 | 1008.7 |
| 20260509001545 | 24 | 143 | 3.2 | 12.9 | 0.00 | 0.00 | 0.00 | 78 | 1008.7 |
| 20260509001028 | 24 | 165 | 3.2 | 14.5 | 0.00 | 0.00 | 0.00 | 78 | 1008.6 |
| 20260509000526 | 24 | 141 | 6.4 | 14.5 | 0.00 | 0.00 | 0.00 | 77 | 1008.7 |
| 20260509000044 | 24 | 183 | 9.7 | 14.5 | 0.00 | 0.00 | 0.00 | 77 | 1008.6 |
| 20260508235526 | 24 | 108 | 4.8 | 17.7 | 0.00 | 0.00 | 0.00 | 77 | 1008.5 |
| 20260508235027 | 24 | 171 | 6.4 | 17.7 | 0.00 | 0.00 | 0.00 | 76 | 1008.5 |
| 20260508234545 | 24 | 171 | 8.0 | 19.3 | 0.00 | 0.00 | 0.00 | 76 | 1008.7 |
| 20260508234030 | 24 | 148 | 9.7 | 19.3 | 0.00 | 0.00 | 0.00 | 76 | 1008.7 |
| 20260508233526 | 24 | 178 | 9.7 | 19.3 | 0.00 | 0.00 | 0.00 | 76 | 1008.6 |
| 20260508233044 | 24 | 140 | 9.7 | 19.3 | 0.00 | 0.00 | 0.00 | 76 | 1008.5 |
| 20260508232525 | 24 | 135 | 8.0 | 17.7 | 0.00 | 0.00 | 0.00 | 76 | 1008.6 |
| 20260508232029 | 24 | 141 | 11.3 | 17.7 | 0.00 | 0.00 | 0.00 | 75 | 1008.7 |
| 20260508231550 | 24 | 117 | 6.4 | 16.1 | 0.00 | 0.00 | 0.00 | 76 | 1008.7 |
| 20260508231029 | 24 | 124 | 8.0 | 17.7 | 0.00 | 0.00 | 0.00 | 75 | 1008.7 |
| 20260508230527 | 24 | 141 | 8.0 | 17.7 | 0.00 | 0.00 | 0.00 | 75 | 1008.8 |
| 20260508230056 | 24 | 125 | 6.4 | 19.3 | 0.00 | 0.00 | 0.00 | 75 | 1008.8 |
| 20260508225527 | 23 | 132 | 9.7 | 22.5 | 0.00 | 0.00 | 0.00 | 75 | 1008.9 |
| 20260508225027 | 23 | 151 | 9.7 | 22.5 | 0.00 | 0.00 | 0.00 | 75 | 1008.9 |
| 20260508224600 | 23 | 142 | 8.0 | 22.5 | 0.00 | 0.00 | 0.00 | 76 | 1009.1 |
| 20260508224026 | 23 | 152 | 11.3 | 22.5 | 0.00 | 0.00 | 0.00 | 75 | 1009.0 |
| 20260508223530 | 23 | 144 | 6.4 | 17.7 | 0.00 | 0.00 | 0.00 | 76 | 1009.2 |
| 20260508223046 | 23 | 165 | 8.0 | 17.7 | 0.00 | 0.00 | 0.00 | 75 | 1009.3 |
| 20260508222526 | 23 | 99 | 8.0 | 16.1 | 0.00 | 0.00 | 0.00 | 76 | 1009.3 |
| 20260508222029 | 23 | 141 | 9.7 | 16.1 | 0.00 | 0.00 | 0.00 | 76 | 1009.3 |
| 20260508221555 | 23 | 157 | 4.8 | 12.9 | 0.00 | 0.00 | 0.00 | 76 | 1009.6 |
| 20260508221026 | 23 | 130 | 4.8 | 12.9 | 0.00 | 0.00 | 0.00 | 76 | 1009.7 |
| 20260508220525 | 22 | 135 | 6.4 | 12.9 | 0.00 | 0.00 | 0.00 | 76 | 1009.8 |
| 20260508220049 | 22 | 136 | 4.8 | 9.7 | 0.00 | 0.00 | 0.00 | 75 | 1009.9 |
| 20260508215530 | 22 | 136 | 3.2 | 9.7 | 0.00 | 0.00 | 0.00 | 75 | 1010.0 |
| 20260508215026 | 22 | 150 | 3.2 | 8.0 | 0.00 | 0.00 | 0.00 | 75 | 1010.0 |
| 20260508214545 | 22 | 0 | 1.6 | 8.0 | 0.00 | 0.00 | 0.00 | 76 | 1010.0 |
| 20260508214030 | 22 | 11 | 3.2 | 8.0 | 0.00 | 0.00 | 0.00 | 77 | 1010.1 |
| 20260508213527 | 22 | 44 | 1.6 | 4.8 | 0.00 | 0.00 | 0.00 | 77 | 1010.1 |
| 20260508213045 | 22 | 50 | 1.6 | 6.4 | 0.00 | 0.00 | 0.00 | 77 | 1010.3 |
| 20260508212531 | 22 | 50 | 3.2 | 6.4 | 0.00 | 0.00 | 0.00 | 76 | 1010.4 |
| 20260508212026 | 22 | 63 | 1.6 | 4.8 | 0.00 | 0.00 | 0.00 | 77 | 1010.6 |
| 20260508211544 | 22 | 57 | 1.6 | 6.4 | 0.00 | 0.00 | 0.00 | 76 | 1010.6 |
| 20260508211029 | 22 | 118 | 0.0 | 11.3 | 0.00 | 0.00 | 0.00 | 76 | 1010.7 |
| 20260508210527 | 22 | 178 | 3.2 | 11.3 | 0.00 | 0.00 | 0.00 | 76 | 1010.7 |
| 20260508210045 | 22 | 186 | 3.2 | 6.4 | 0.00 | 0.00 | 0.00 | 76 | 1010.6 |
| 20260508205526 | 22 | 177 | 1.6 | 6.4 | 0.00 | 0.00 | 0.00 | 77 | 1010.7 |
| 20260508205026 | 22 | 171 | 1.6 | 6.4 | 0.00 | 0.00 | 0.00 | 77 | 1010.7 |
| 20260508204549 | 22 | 97 | 3.2 | 4.8 | 0.00 | 0.00 | 0.00 | 76 | 1010.9 |
| 20260508204026 | 22 | 0 | 0.0 | 6.4 | 0.00 | 0.00 | 0.00 | 76 | 1011.2 |
| 20260508203528 | 22 | 265 | 1.6 | 6.4 | 0.00 | 0.00 | 0.00 | 76 | 1011.3 |
| 20260508203057 | 22 | 251 | 0.0 | 4.8 | 0.00 | 0.00 | 0.00 | 76 | 1011.3 |
| 20260508202530 | 22 | 240 | 0.0 | 6.4 | 0.00 | 0.00 | 0.00 | 75 | 1011.4 |
| 20260508202030 | 22 | 0 | 1.6 | 6.4 | 0.00 | 0.00 | 0.00 | 75 | 1011.4 |
| 20260508201547 | 22 | 140 | 1.6 | 8.0 | 0.00 | 0.00 | 0.00 | 74 | 1011.3 |
| 20260508201030 | 22 | 120 | 1.6 | 8.0 | 0.00 | 0.00 | 0.00 | 74 | 1011.4 |
| 20260508200530 | 22 | 153 | 1.6 | 8.0 | 0.00 | 0.00 | 0.00 | 74 | 1011.4 |
| 20260508200052 | 22 | 198 | 0.0 | 9.7 | 0.00 | 0.00 | 0.00 | 75 | 1011.2 |
| 20260508195530 | 22 | 118 | 4.8 | 14.5 | 0.00 | 0.00 | 0.00 | 74 | 1011.1 |
| 20260508195028 | 22 | 209 | 8.0 | 14.5 | 0.00 | 0.00 | 0.00 | 74 | 1011.3 |
| 20260508194545 | 22 | 151 | 3.2 | 11.3 | 0.00 | 0.00 | 0.00 | 74 | 1011.2 |
| 20260508194029 | 22 | 167 | 4.8 | 11.3 | 0.00 | 0.00 | 0.00 | 74 | 1011.7 |
| 20260508193528 | 22 | 184 | 4.8 | 16.1 | 0.00 | 0.00 | 0.00 | 73 | 1011.7 |
| 20260508193117 | 21 | 101 | 4.8 | 16.1 | 0.00 | 0.00 | 0.00 | 75 | 1011.6 |
| 20260508192527 | 21 | 142 | 4.8 | 8.0 | 0.00 | 0.00 | 0.00 | 76 | 1011.5 |
| 20260508192030 | 21 | 161 | 1.6 | 8.0 | 0.00 | 0.00 | 0.00 | 75 | 1011.7 |
| 20260508191544 | 21 | 170 | 1.6 | 11.3 | 0.00 | 0.00 | 0.00 | 75 | 1011.8 |
| 20260508191028 | 21 | 200 | 6.4 | 11.3 | 0.00 | 0.00 | 0.00 | 75 | 1011.9 |
| 20260508190531 | 21 | 182 | 4.8 | 9.7 | 0.00 | 0.00 | 0.00 | 75 | 1012.0 |
| 20260508190041 | 21 | 135 | 3.2 | 6.4 | 0.00 | 0.00 | 0.00 | 74 | 1012.0 |
| 20260508185530 | 21 | 0 | 3.2 | 8.0 | 0.00 | 0.00 | 0.00 | 74 | 1012.0 |
| 20260508185030 | 21 | 136 | 3.2 | 11.3 | 0.00 | 0.00 | 0.00 | 74 | 1012.1 |
| 20260508184602 | 21 | 198 | 3.2 | 11.3 | 0.00 | 0.00 | 0.00 | 75 | 1012.2 |
| 20260508184030 | 21 | 167 | 4.8 | 11.3 | 0.00 | 0.00 | 0.00 | 74 | 1012.3 |
| 20260508183525 | 21 | 190 | 4.8 | 12.9 | 0.00 | 0.00 | 0.00 | 74 | 1012.5 |
| 20260508183045 | 21 | 121 | 4.8 | 19.3 | 0.00 | 0.00 | 0.00 | 74 | 1012.2 |
| 20260508182528 | 21 | 134 | 6.4 | 19.3 | 0.00 | 0.00 | 0.00 | 73 | 1012.4 |
| 20260508182027 | 21 | 173 | 9.7 | 17.7 | 0.00 | 0.00 | 0.00 | 73 | 1012.5 |
| 20260508181543 | 21 | 126 | 4.8 | 17.7 | 0.00 | 0.00 | 0.00 | 73 | 1012.9 |
| 20260508181031 | 21 | 136 | 8.0 | 17.7 | 0.00 | 0.00 | 0.00 | 72 | 1012.8 |
| 20260508180526 | 21 | 133 | 4.8 | 17.7 | 0.00 | 0.00 | 0.00 | 73 | 1013.0 |
| 20260508180048 | 21 | 111 | 8.0 | 17.7 | 0.00 | 0.00 | 0.00 | 72 | 1012.9 |
| 20260508175527 | 21 | 124 | 6.4 | 16.1 | 0.00 | 0.00 | 0.00 | 72 | 1013.1 |
| 20260508175028 | 21 | 124 | 8.0 | 16.1 | 0.00 | 0.00 | 0.00 | 72 | 1013.1 |
| 20260508174556 | 21 | 151 | 6.4 | 14.5 | 0.00 | 0.00 | 0.00 | 73 | 1012.8 |
| 20260508174031 | 20 | 88 | 6.4 | 14.5 | 0.00 | 0.00 | 0.00 | 74 | 1012.7 |
| 20260508173527 | 20 | 118 | 4.8 | 14.5 | 0.00 | 0.00 | 0.00 | 74 | 1013.0 |
| 20260508173044 | 20 | 100 | 8.0 | 14.5 | 0.00 | 0.00 | 0.00 | 74 | 1013.1 |
| 20260508172526 | 20 | 123 | 8.0 | 14.5 | 0.00 | 0.00 | 0.00 | 74 | 1013.4 |
| 20260508172026 | 20 | 101 | 9.7 | 14.5 | 0.00 | 0.00 | 0.00 | 74 | 1013.4 |
| 20260508171612 | 20 | 115 | 4.8 | 12.9 | 0.00 | 0.00 | 0.00 | 75 | 1013.5 |
| 20260508171025 | 20 | 108 | 4.8 | 16.1 | 0.00 | 0.00 | 0.00 | 74 | 1013.5 |
| 20260508170527 | 20 | 133 | 6.4 | 16.1 | 0.00 | 0.00 | 0.00 | 74 | 1013.7 |
| 20260508170044 | 20 | 117 | 6.4 | 16.1 | 0.00 | 0.00 | 0.00 | 73 | 1013.8 |
| 20260508165527 | 20 | 144 | 6.4 | 14.5 | 0.00 | 0.00 | 0.00 | 73 | 1013.9 |
| 20260508165027 | 20 | 232 | 6.4 | 14.5 | 0.00 | 0.00 | 0.00 | 73 | 1014.0 |
| 20260508164544 | 20 | 121 | 3.2 | 14.5 | 0.00 | 0.00 | 0.00 | 73 | 1014.0 |
| 20260508164027 | 20 | 190 | 6.4 | 17.7 | 0.00 | 0.00 | 0.00 | 73 | 1014.1 |
| 20260508163526 | 20 | 121 | 4.8 | 17.7 | 0.00 | 0.00 | 0.00 | 73 | 1014.1 |
| 20260508163039 | 20 | 111 | 9.7 | 17.7 | 0.00 | 0.00 | 0.00 | 72 | 1014.0 |
| 20260508162526 | 20 | 114 | 6.4 | 14.5 | 0.00 | 0.00 | 0.00 | 73 | 1014.3 |
| 20260508162027 | 20 | 88 | 6.4 | 12.9 | 0.00 | 0.00 | 0.00 | 73 | 1014.3 |
| 20260508161551 | 20 | 126 | 3.2 | 16.1 | 0.00 | 0.00 | 0.00 | 74 | 1014.4 |
| 20260508161027 | 19 | 86 | 8.0 | 16.1 | 0.00 | 0.00 | 0.00 | 74 | 1014.5 |
| 20260508160525 | 19 | 75 | 4.8 | 14.5 | 0.00 | 0.00 | 0.00 | 74 | 1014.4 |
| 20260508160044 | 19 | 88 | 8.0 | 14.5 | 0.00 | 0.00 | 0.00 | 73 | 1014.6 |
| 20260508155525 | 19 | 115 | 4.8 | 14.5 | 0.00 | 0.00 | 0.00 | 74 | 1014.6 |
| 20260508155027 | 19 | 123 | 4.8 | 14.5 | 0.00 | 0.00 | 0.00 | 74 | 1014.6 |
| 20260508154547 | 19 | 76 | 4.8 | 14.5 | 0.00 | 0.00 | 0.00 | 74 | 1014.7 |
| 20260508154026 | 19 | 113 | 4.8 | 14.5 | 0.00 | 0.00 | 0.00 | 74 | 1014.7 |
| 20260508153526 | 18 | 92 | 4.8 | 12.9 | 0.00 | 0.00 | 0.00 | 74 | 1014.7 |
| 20260508153046 | 18 | 86 | 6.4 | 12.9 | 0.00 | 0.00 | 0.00 | 75 | 1014.7 |
| 20260508152529 | 18 | 74 | 1.6 | 9.7 | 0.00 | 0.00 | 0.00 | 77 | 1014.8 |
| 20260508152030 | 18 | 91 | 3.2 | 11.3 | 0.00 | 0.00 | 0.00 | 77 | 1014.9 |
| 20260508151553 | 18 | 65 | 4.8 | 12.9 | 0.00 | 0.00 | 0.00 | 78 | 1014.8 |
| 20260508151030 | 18 | 352 | 3.2 | 12.9 | 0.00 | 0.00 | 0.00 | 78 | 1014.8 |
| 20260508150526 | 18 | 63 | 4.8 | 11.3 | 0.00 | 0.00 | 0.00 | 78 | 1014.9 |
| 20260508150039 | 18 | 16 | 3.2 | 9.7 | 0.00 | 0.00 | 0.00 | 78 | 1014.9 |
| 20260508145527 | 18 | 27 | 4.8 | 9.7 | 0.00 | 0.00 | 0.00 | 79 | 1014.7 |
| 20260508145028 | 18 | 13 | 1.6 | 9.7 | 0.00 | 0.00 | 0.00 | 80 | 1014.7 |
| 20260508144545 | 18 | 47 | 4.8 | 9.7 | 0.00 | 0.00 | 0.00 | 80 | 1014.7 |
| 20260508144030 | 18 | 15 | 4.8 | 8.0 | 0.00 | 0.00 | 0.00 | 80 | 1014.6 |
| 20260508143527 | 18 | 352 | 3.2 | 8.0 | 0.00 | 0.00 | 0.00 | 80 | 1014.6 |
| 20260508143045 | 18 | 35 | 4.8 | 8.0 | 0.00 | 0.00 | 0.00 | 80 | 1014.5 |
| 20260508142529 | 18 | 39 | 1.6 | 6.4 | 0.00 | 0.00 | 0.00 | 80 | 1014.6 |
| 20260508142027 | 18 | 36 | 1.6 | 6.4 | 0.00 | 0.00 | 0.00 | 81 | 1014.7 |
| 20260508141544 | 17 | 5 | 3.2 | 6.4 | 0.00 | 0.00 | 0.00 | 81 | 1014.8 |
| 20260508141028 | 17 | 0 | 0.0 | 4.8 | 0.00 | 0.00 | 0.00 | 81 | 1014.9 |
| 20260508140526 | 17 | 0 | 1.6 | 4.8 | 0.00 | 0.00 | 0.00 | 81 | 1014.8 |
| 20260508140040 | 17 | 26 | 0.0 | 6.4 | 0.00 | 0.00 | 0.00 | 82 | 1014.8 |
| 20260508135527 | 17 | 39 | 0.0 | 6.4 | 0.00 | 0.00 | 0.00 | 82 | 1014.9 |
| 20260508135029 | 17 | 47 | 3.2 | 6.4 | 0.00 | 0.00 | 0.00 | 82 | 1014.9 |
| 20260508134545 | 17 | 26 | 3.2 | 6.4 | 0.00 | 0.00 | 0.00 | 83 | 1014.8 |
| 20260508134029 | 17 | 78 | 0.0 | 4.8 | 0.00 | 0.00 | 0.00 | 84 | 1014.9 |
| 20260508133532 | 16 | 0 | 1.6 | 6.4 | 0.00 | 0.00 | 0.00 | 85 | 1014.8 |
| 20260508133102 | 16 | 79 | 1.6 | 6.4 | 0.00 | 0.00 | 0.00 | 85 | 1014.9 |
| 20260508132529 | 16 | 0 | 1.6 | 6.4 | 0.00 | 0.00 | 0.00 | 85 | 1014.8 |
| 20260508132027 | 16 | 90 | 1.6 | 4.8 | 0.00 | 0.00 | 0.00 | 85 | 1014.8 |
| 20260508131541 | 16 | 0 | 0.0 | 4.8 | 0.00 | 0.00 | 0.00 | 86 | 1014.8 |
| 20260508131029 | 16 | 100 | 0.0 | 4.8 | 0.00 | 0.00 | 0.00 | 86 | 1014.9 |
| 20260508130528 | 16 | 96 | 1.6 | 4.8 | 0.00 | 0.00 | 0.00 | 87 | 1014.9 |
| 20260508130041 | 16 | 0 | 1.6 | 4.8 | 0.00 | 0.00 | 0.00 | 87 | 1014.9 |
| 20260508125527 | 16 | 51 | 0.0 | 4.8 | 0.00 | 0.00 | 0.00 | 88 | 1015.1 |
| 20260508125027 | 15 | 18 | 0.0 | 4.8 | 0.00 | 0.00 | 0.00 | 89 | 1015.1 |
| 20260508124545 | 15 | 19 | 0.0 | 1.6 | 0.00 | 0.00 | 0.00 | 89 | 1015.0 |
| 20260508124027 | 15 | 0 | 0.0 | 3.2 | 0.00 | 0.00 | 0.00 | 90 | 1015.1 |
| 20260508123529 | 15 | 0 | 0.0 | 3.2 | 0.00 | 0.00 | 0.00 | 90 | 1015.0 |
| 20260508123111 | 15 | 0 | 0.0 | 3.2 | 0.00 | 0.00 | 0.00 | 90 | 1014.9 |
| 20260508122527 | 15 | 0 | 0.0 | 3.2 | 0.00 | 0.00 | 0.00 | 90 | 1014.9 |
| 20260508122028 | 14 | 0 | 0.0 | 3.2 | 0.00 | 0.00 | 0.00 | 89 | 1014.7 |
| 20260508121545 | 14 | 10 | 0.0 | 4.8 | 0.00 | 0.00 | 0.00 | 90 | 1014.6 |
| 20260508121028 | 14 | 10 | 0.0 | 6.4 | 0.00 | 0.00 | 0.00 | 89 | 1014.5 |
| 20260508120529 | 14 | 10 | 1.6 | 9.7 | 0.00 | 0.00 | 0.00 | 89 | 1014.5 |
| 20260508120051 | 14 | 5 | 3.2 | 9.7 | 0.00 | 0.00 | 0.00 | 89 | 1014.3 |
| 20260508115527 | 14 | 5 | 4.8 | 9.7 | 0.00 | 0.00 | 0.00 | 89 | 1014.2 |
| 20260508115026 | 14 | 346 | 4.8 | 9.7 | 0.00 | 0.00 | 0.00 | 89 | 1014.2 |
| 20260508114545 | 14 | 332 | 4.8 | 9.7 | 0.00 | 0.00 | 0.00 | 89 | 1014.2 |
| 20260508114029 | 14 | 51 | 3.2 | 4.8 | 0.00 | 0.00 | 0.00 | 89 | 1014.2 |
| 20260508113527 | 14 | 84 | 1.6 | 4.8 | 0.00 | 0.00 | 0.00 | 89 | 1014.3 |
| 20260508113054 | 14 | 94 | 0.0 | 3.2 | 0.00 | 0.00 | 0.00 | 89 | 1014.3 |